Regional Weather Roundup
Issued by NWS Jackson, KY

Home | Current Version | Previous Version | Text Only | Print | Product List | Glossary Off
Versions: 1 2 3 4 5 6 7 8 9 10 11 12 13 14 15 16 17 18 19 20 21 22 23 24 25 26 27 28 29 30 31 32 33 34 35 36 37 38 39 40 41 42 43 44 45 46 47 48 49 50

000
ASUS43 KJKL 231619
RWRJKL

EAST KENTUCKY HOURLY WEATHER ROUNDUP
NATIONAL WEATHER SERVICE JACKSON KY
1200 PM EDT WED JUL 23 2014

NOTE: "FAIR" INDICATES FEW OR NO CLOUDS BELOW 12,000 FEET WITH
NO SIGNIFICANT WEATHER AND/OR OBSTRUCTIONS TO VISIBILITY.

* THESE REPORTS ARE NOT UNDER NWS QUALITY CONTROL AND MAY NOT
  REPORT WEATHER SUCH AS PRECIPITATION AND FOG.

KYZ079-080-083-085-087-088-110-112-115-119-120-231700
...EASTERN KENTUCKY...

CITY           SKY/WX    TMP DP  RH WIND       PRES   REMARKS
JACKSON        SUNNY     82  70  66 VRB6      30.09F
LONDON         MOSUNNY   85  72  65 W8        30.10F HX  91
SOMERSET*      MOSUNNY   84  72  65 W9        30.10F
MONTICELLO*    SUNNY     87  74  65 CALM      30.11F HX  95
WILLIAMSBURG*  MOSUNNY   82  73  74 CALM      30.10F
MIDDLESBORO*   PTSUNNY   82  72  71 CALM      30.11F
HARLAN APT*    PTSUNNY   79  70  73 MISG      30.12F
BLACK MTN*       N/A     68  66  94 S2          N/A
PIKEVILLE APT* CLOUDY    81  72  74 N3        30.09F
BIG SANDY*     PTSUNNY   84  74  71 CALM      30.07F HX  90
MOREHEAD APT*    N/A     82  72  69 S10       30.06F
ASHLAND*       SUNNY     88  68  51 S12       29.96F HX  91
$$

KYZ035-036-041-042-044-050-067-078-099-231700
...CENTRAL KENTUCKY...

CITY           SKY/WX    TMP DP  RH WIND       PRES   REMARKS
MT STERLING*   SUNNY     82  72  69 S5        30.08S
FLEMING/MASON* CLOUDY    82  66  57 S9        30.03F
DANVILLE*      PTSUNNY   84  70  61 W3        30.09F
RICHMOND*      PTSUNNY   82  72  69 NW8       30.08S
LEXINGTON      MOSUNNY   84  70  62 S8        30.08F
FRANKFORT      PTSUNNY   80  71  74 SW10      30.08R
$$

KYZ091>093-OHZ055-061-077-WVZ005-015-034-035-042-231700
...SOUTHERN OHIO/WEST VIRGINIA...

CITY           SKY/WX    TMP DP  RH WIND       PRES   REMARKS
COVINGTON      LGT RAIN  71  67  87 N15       30.10R FOG
COLUMBUS       CLOUDY    76  66  71 NW13      30.02R
DAYTON         PTSUNNY   78  67  68 W14       30.07R
WILMINGTON     CLOUDY    74  67  78 W15       30.06R
HUNTINGTON     SUNNY     82  73  74 S6        30.01F
CHARLESTON     MOSUNNY   82  73  74 SW6       30.02F
PINEVILLE*     CLOUDY    81  74  79 MISG      30.16S
BECKLEY        PTSUNNY   77  68  73 SW7       30.14F
BLUEFIELD      CLOUDY    78  65  63 N7        30.18S
$$

VAZ002-007-008-TNZ017-027-036-066-071-231700
...SOUTHWEST VIRGINIA/EAST TENNESSEE...

CITY           SKY/WX    TMP DP  RH WIND       PRES   REMARKS
WISE*          PTSUNNY   70  68  94 S5        30.19F
JONESVILLE*    PTSUNNY   81  72  74 CALM      30.14F
ABINGDON*      PTSUNNY   78  71  78 W10       30.15F
BRISTOL        CLOUDY    76  69  79 SW9       30.14S
KNOXVILLE      LGT RAIN  78  70  76 CALM      30.11F
OAK RIDGE      PTSUNNY   82  71  69 VRB3      30.12S
CROSSVILLE     SUNNY     79  69  71 NW7       30.16F
NASHVILLE      PTSUNNY   89  72  56 CALM      30.10S HX  96
$$

...KEY TO REMARKS...
VSB - VISIBILITY IN MILES
WCI - WIND CHILL INDEX
HX  - HEAT INDEX

$$



USA.gov is the U.S. government's official web portal to all federal, state and local government web resources and services.